Regional Weather Roundup
Issued by NWS

Home | Current Version | Previous Version | Text Only | Print | Product List | Glossary Off
Versions: 1 2 3 4 5 6 7 8 9 10 11 12 13 14 15 16 17 18 19 20 21 22 23 24 25 26 27 28 29 30 31 32 33 34 35 36 37 38 39 40 41 42 43 44 45 46 47 48 49 50

000
ASUS45 KBOU 231007
RWRCO

WEATHER ROUNDUP FOR COLORADO
NATIONAL WEATHER SERVICE DENVER/BOULDER CO
400 AM MDT SAT MAY 23 2015

NOTE: "FAIR" INDICATES FEW OR NO CLOUDS BELOW 12000 FEET WITH NO
SIGNIFICANT WEATHER AND/OR OBSTRUCTIONS TO VISIBILITY.

COZ001>005-013-030-031-231100-
...NORTHWEST COLORADO...

CITY           SKY/WX    TMP DP  RH WIND       PRES   REMARKS
CRAIG          PTCLDY    42  38  85 E9        30.00F
HAYDEN         PTCLDY    39  36  87 E13       30.00F
MEEKER         CLOUDY    42  37  82 MISG      30.01F
MOUNT WERNER   NOT AVBL
STEAMBOAT SPGS MOCLDY    37  36  96 CALM      30.04F
WALDEN         CLOUDY    36  32  87 CALM      29.95F
$$

COZ006>008-011-231100-
...WEST CENTRAL VALLEYS...

CITY           SKY/WX    TMP DP  RH WIND       PRES   REMARKS
GRAND JUNCTION PTCLDY    47  42  83 E8        29.95S
MONTROSE       CLOUDY    48  37  65 E12       30.03F
EAGLE          CLOUDY    45  45 100 CALM      30.08S
RIFLE          MOCLDY    46  41  82 CALM      30.01S
DELTA          MOCLDY    50  44  79 MISG      30.00S
NUCLA          MOCLDY    45  34  65 E13       30.04S
$$

COZ017>023-064>068-231100-
...SOUTHWEST COLORADO...

CITY           SKY/WX    TMP DP  RH WIND       PRES   REMARKS
DURANGO        CLOUDY    45  36  70 NW6       30.04S
CORTEZ         PTCLDY    37  34  89 CALM      30.03S
PAGOSA SPRINGS CLOUDY    41  39  93 CALM      30.07R
TELLURIDE      CLOUDY    35  33  91 SE5       30.13F WCI  31
WOLF CREEK PAS NOT AVBL
$$

COZ009-010-012-014-032>034-037-058>063-231100-
...CENTRAL COLORADO...

CITY           SKY/WX    TMP DP  RH WIND       PRES   REMARKS
ASPEN          CLOUDY    41  36  82 SE8       30.08R
BUENA VISTA    MOCLDY    39  35  85 W3        30.07F
COPPER MTN     MIX PCPN  34  28  80 W3        30.18F
BERTHOUD PASS  FAIR      23  16  74 W8        30.23S WCI  14
COTTONWOOD PAS MOCLDY    37  32  81 CALM      30.11F
GUNNISON       MOCLDY    36  32  87 N3        30.12F
KREMMLING      CLOUDY    37  36  93 CALM      30.09F
LEADVILLE      LGT SNOW  31  31 100 NW5       30.12F FOG     WCI  26
MONARCH PASS   FOG       28  28 100 MISG      30.28F VSB<1/4
SALIDA         MOCLDY    43  38  82 NW6       30.12F
SUNLIGHT       MOCLDY    32  32 100 CALM      30.18F
WILKERSON PASS MOCLDY    32  30  93 S6        30.20F WCI  26
$$

COZ069>075-231100-
...SAN LUIS VALLEY/SANGRE DE CRISTO MOUNTAINS...

CITY           SKY/WX    TMP DP  RH WIND       PRES   REMARKS
ALAMOSA        PTCLDY    41  36  82 N5        30.04S
LA VETA PASS   LGT RAIN N/A N/A N/A MISG      30.16R
SAGUACHE       PTCLDY    37  36  93 N10       30.07S
$$

COZ035-036-038>040-231100-
...NORTHERN COLORADO FRONT RANGE...

CITY           SKY/WX    TMP DP  RH WIND       PRES   REMARKS
DENVER INTL AP FOG       46  45  96 NW6       30.02S VSB 1/4
DMNS CITY PARK   N/A     47  46  97 NE1       30.01F
AURORA         MOCLDY    45  45 100 W2        30.03F
FRONT RANGE AP NOT AVBL
ERIE MUNI ARPT CLOUDY    47  47  99 CALM      30.02F FOG
BOULDER MUN AP CLOUDY    46  46 100 CALM      30.03F FOG
CENTENNIAL     MOCLDY    47  45  93 CALM      30.03F
BROOMFIELD     MOCLDY    46  46 100 CALM      30.04F FOG
FORT COLLINS   CLOUDY    48  46  93 E5        30.05F
LONGMONT       CLOUDY    49  47  94 CALM      30.04F FOG
$$

COZ041-046-047-076>085-087-088-231100-
...PIKES PEAK/PALMER DIVIDE AND SOUTHERN FOOTHILLS...

CITY           SKY/WX    TMP DP  RH WIND       PRES   REMARKS
COLO. SPRINGS  MOCLDY    47  43  86 N10       30.01F
A. F. ACADEMY  MOCLDY    45  44  97 NW9       30.02F
ELLICOTT       NOT AVBL
FALCON         MOCLDY    45  43  92 N10G16    30.04F
FORT CARSON    MOCLDY    47  44  91 N7        30.00S
LIMON          CLOUDY    49  49 100 NE9       30.01S FOG
MONUMENT HILL  NOT AVBL
TRINIDAD       MOCLDY    53  45  74 NW8       29.99S
$$

COZ042>045-048>051-090-091-231100-
...NORTHEAST COLORADO...

CITY           SKY/WX    TMP DP  RH WIND       PRES   REMARKS
GREELEY ARPT   CLOUDY    48  46  93 CALM      30.04F
AKRON          FOG       49  49 100 E9        30.01F VSB 3/4
BURLINGTON     FOG       54  53  97 SE17G24   30.01F VSB 1/4
WRAY           CLOUDY   N/A N/A N/A E18       30.02R
STERLING       CLOUDY    50  50 100 SE3       30.02F
HOLYOKE        NOT AVBL
FORT MORGAN    FOG       49  48  95 NE5       30.03F VSB 3/4
$$

COZ086-089-092>099-231100-
...SOUTHEAST COLORADO...

CITY           SKY/WX    TMP DP  RH WIND       PRES   REMARKS
PUEBLO         PTCLDY    49  46  90 CALM      29.97F
LA JUNTA       PTCLDY    53  50  89 S6        29.97R
LAMAR          MOCLDY    56  54  93 SE12      29.96S
SPRINGFIELD      N/A     56  54  93 S16       30.00F
$$


USA.gov is the U.S. government's official web portal to all federal, state and local government web resources and services.